Погода в Парфеновом

Россия / Алтайский край     52°48′34″N   82°43′44″E
темп.,
°C
ветер,
м/с
пор.,
м/с
влажн.,
%
обл.,
%
осадки,
мм/ч
давл.,
гПа
погр.,
м
18 августа, чт
чт1801:00+8з358211 0.6 101265
04:00+6зюз348416 0.1 101248
07:00+6з35875 0.1 1013111
10:00+13з34625 0.0 1013745
13:00+16з564072 0.3 10122114
16:00+15з564267 0.1 10131334
19:00+13зсз344884 0.1 1013979
22:00+8зсз487383 0.1 1014163
19 августа, пт
пт1901:00+6зсз348748 0.1 101560
04:00+4зюз33955 0.0 101460
07:00+6юз3489100 0.0 1015140
10:00+9юз4577100 0.1 1015421
13:00+13зюз3454100 0.3 10141292
16:00+16зсз334457 0.4 10131743
19:00+14сз3458100 1.4 1014309
22:00+9зсз49885 0.1 1016213
20 августа, сб
сб2001:00+6зсз35965 0.1 101796
04:00+6з22975 0.0 101832
07:00+6юз22965 0.0 101917
10:00+12ю11690 0.0 1019527
13:00+17в22423 0.0 10191569
16:00+20св343261 0.0 10172435
19:00+19всв453128 0.0 10172241
22:00+15в354615 0.0 1019121
21 августа, вс
вс2101:00+11ссв235897 0.0 101928
04:00+12ссв1256100 0.0 101819
07:00+13ссв2362100 0.0 101990
10:00+16ссв346092 0.0 1019536
13:00+21ссв453880 0.1 10182184
16:00+20с6645100 0.0 10181184
19:00+15с497073 0.6 1019294
22:00+14ссз3671100 0.3 1020118
22 августа, пн
пн2201:00+13ссз3567100 0.3 102087
04:00+13ссз3464100 0.0 102081
07:00+13ссз2262100 0.0 102141
10:00+16ссз345499 0.0 1022399
13:00+17с3354100 0.0 1023591
16:00+19ссв335065 0.0 10221135
19:00+19с444613 0.0 10221456
22:00+13ссв47675 0.0 1023110